Torna al catalogo

YAOGAN 25C DEB

AttivoLEO
NORAD 69732·DEBRIS·🇷🇺 Russia

Lanciato Dec 10, 2014 da Jiuquan Satellite Launch Center

Loading…

Prossimi Passaggi (prossime 24 ore)

TLE

AggiornatoSource: Space-Track

Epoca: Sep 14, 2026, 10:44 UTC

1 69732U 14080M   26257.44769972  .00006694  00000-0  48072-2 0  9998
2 69732  63.3715  47.4294 0302081  29.5503 332.2236 13.78018956 45303

Traccia YAOGAN 25C DEB in tempo reale con AllMySat

Download on the App Store